Weather History for Wolf Point, MT

Change the Weather History Date:

Thursday, December 19, 2013

  Actual Average Record
Temperature  
Mean Temperature -6 °F -  
Max Temperature 4 °F 25 °F 54 °F (2004)
Min Temperature -16 °F 2 °F -16 °F (2008)
Degree Days  
Heating Degree Days 71    
Cooling Degree Days 0    
Moisture  
Dew Point -8 °F    
Average Humidity 74    
Maximum Humidity 83    
Minimum Humidity 66    
Precipitation  
Precipitation 0.01 in 0.02 in 0.01 in (2012)
Month to date precipitation 0.10 0.17  
Year to date precipitation 13.34 12.05  
Sea Level Pressure  
Sea Level Pressure 30.26 in    
Wind  
Wind Speed 8 mph (NNE)    
Max Wind Speed 12 mph    
Max Gust Speed -    
Visibility 5 miles    
Events Snow    
T = Trace of Precipitation, MM = Missing Value Source: NWS Daily Summary

Daily Weather History Graph

Daily Weather History Graph

Search for Another Location

Airport:

Trip Planner

Search our weather history database for the weather conditions in past years. The results will help you decide how hot, cold, wet, or windy it might be!

Date:

Astronomy

Dec. 19, 2013 Rise Set
Actual Time 7:48 AM MST 4:10 PM MST
Civil Twilight 7:12 AM MST 4:46 PM MST
Nautical Twilight 6:32 AM MST 5:26 PM MST
Astronomical Twilight 5:54 AM MST 6:04 PM MST
Moon 6:48 PM MST (12/19) 9:00 AM MST (12/19)
Length of Visible Light 9h 34m
Length of Day
8h 21m
Waning Gibbous, 95% of the Moon is Illuminated
Dec 19
Waning Gibbous
Dec 25
Last Quarter
Jan 1
New
Jan 7
First Quarter
Jan 15
Full

Hourly Weather History & Observations

Time (MST) Temp. Windchill Dew Point Humidity Pressure Visibility Wind Dir Wind Speed Gust Speed Precip Events Conditions
12:53 AM 1.9 °F -13.8 °F -6.0 °F 69% 30.21 in 10.0 mi NE 10.4 mph - N/A   Overcast
1:53 AM 1.9 °F -14.7 °F -6.0 °F 69% 30.25 in 9.0 mi ENE 11.5 mph - N/A   Overcast
2:53 AM 1.9 °F -12.9 °F -5.1 °F 72% 30.29 in 2.0 mi NE 9.2 mph - 0.00 in Snow Light Snow
3:02 AM 1.9 °F -14.7 °F -5.1 °F 72% 30.15 in 1.8 mi NNE 11.5 mph - 0.00 in Snow Light Snow
3:37 AM 1.0 °F -14.0 °F -4.0 °F 79% 30.15 in 1.0 mi NE 9.2 mph - 0.00 in Snow Light Snow
3:49 AM 1.4 °F -14.5 °F -5.8 °F 72% 30.15 in 1.2 mi NE 10.4 mph - 0.00 in Snow Light Snow
3:53 AM 1.0 °F -15.8 °F -5.1 °F 75% 30.29 in 1.2 mi NE 11.5 mph - 0.00 in Snow Light Snow
4:27 AM 1.0 °F -12.9 °F -6.0 °F 72% 30.16 in 1.8 mi NE 8.1 mph - 0.00 in Snow Light Snow
4:45 AM 1.0 °F -14.9 °F -6.0 °F 72% 30.16 in 1.5 mi NE 10.4 mph - 0.00 in Snow Light Snow
4:53 AM 1.0 °F -14.9 °F -6.0 °F 72% 30.30 in 1.8 mi NE 10.4 mph - 0.00 in Snow Light Snow
5:46 AM 1.0 °F -12.9 °F -5.1 °F 75% 30.17 in 1.8 mi ENE 8.1 mph - 0.00 in Snow Light Snow
5:53 AM 1.0 °F -12.9 °F -5.1 °F 75% 30.31 in 1.8 mi NE 8.1 mph - 0.00 in Snow Light Snow
6:26 AM 1.0 °F -15.8 °F -6.0 °F 72% 30.18 in 1.5 mi NE 11.5 mph - 0.00 in Snow Light Snow
6:53 AM 1.0 °F -12.9 °F -5.1 °F 75% 30.33 in 1.2 mi NE 8.1 mph - 0.00 in Snow Light Snow
7:53 AM 1.0 °F -10.3 °F -5.1 °F 75% 30.37 in 1.2 mi NE 5.8 mph - 0.00 in Snow Light Snow
8:26 AM 1.9 °F -9.2 °F -4.0 °F 76% 30.25 in 0.8 mi NNE 5.8 mph - 0.00 in Snow Light Snow
8:53 AM 1.9 °F -10.6 °F -4.0 °F 76% 30.40 in 0.5 mi NNE 6.9 mph - 0.00 in Snow Snow
9:26 AM 1.9 °F -11.8 °F -4.0 °F 76% 30.26 in 1.2 mi NNE 8.1 mph - 0.01 in Snow Light Snow
9:38 AM 1.9 °F -12.9 °F -5.1 °F 72% 30.26 in 1.8 mi NNE 9.2 mph - 0.01 in Snow Light Snow
9:53 AM 1.9 °F -11.8 °F -6.0 °F 69% 30.41 in 1.8 mi NNE 8.1 mph - 0.01 in Snow Light Snow
10:14 AM 1.9 °F -12.9 °F -5.1 °F 72% 30.28 in 2.0 mi NNE 9.2 mph - 0.00 in Snow Light Snow
10:53 AM 3.0 °F -8.0 °F -5.1 °F 69% 30.41 in 1.8 mi NE 5.8 mph - 0.00 in Snow Light Snow
11:05 AM 3.0 °F -8.0 °F -5.1 °F 69% 30.25 in 2.5 mi ENE 5.8 mph - 0.00 in   Haze
11:23 AM 3.0 °F - -5.1 °F 69% 30.25 in 3.0 mi Calm Calm - 0.00 in   Haze
11:53 AM 3.0 °F - -5.1 °F 69% 30.38 in 4.0 mi Calm Calm - 0.00 in   Haze
12:22 PM 3.9 °F - -5.1 °F 66% 30.22 in 10.0 mi Calm Calm - N/A   Scattered Clouds
12:53 PM 3.0 °F -4.4 °F -5.1 °F 69% 30.37 in 10.0 mi WSW 3.5 mph - N/A   Clear
1:53 PM 3.0 °F -8.0 °F -5.1 °F 69% 30.35 in 10.0 mi WSW 5.8 mph - N/A   Clear
2:53 PM 3.0 °F -10.5 °F -6.0 °F 66% 30.35 in 10.0 mi West 8.1 mph - N/A   Clear
3:53 PM 1.0 °F -10.3 °F -8.0 °F 66% 30.36 in 10.0 mi WSW 5.8 mph - N/A   Clear
4:53 PM -2.0 °F -10.1 °F -8.0 °F 76% 30.36 in 10.0 mi SSW 3.5 mph - N/A   Clear
5:53 PM -8.0 °F -22.5 °F -13.0 °F 79% 30.33 in 10.0 mi WSW 6.9 mph - N/A   Clear
6:53 PM -11.0 °F -22.8 °F -15.0 °F 83% 30.32 in 10.0 mi WSW 4.6 mph - N/A   Clear
7:53 PM -11.9 °F -21.5 °F -17.0 °F 78% 30.30 in 10.0 mi SW 3.5 mph - N/A   Clear
8:53 PM -16.1 °F -28.6 °F -20.0 °F 82% 30.27 in 10.0 mi West 4.6 mph - N/A   Clear
9:10 PM -14.1 °F -28.3 °F -18.9 °F 79% 30.08 in 10.0 mi WSW 5.8 mph - N/A   Mostly Cloudy
9:53 PM -9.9 °F - -15.0 °F 78% 30.25 in 10.0 mi Calm Calm - N/A   Overcast
10:09 PM -9.0 °F - -14.1 °F 79% 30.06 in 10.0 mi Calm Calm - N/A   Overcast
10:20 PM -9.0 °F - -13.0 °F 83% 30.06 in 10.0 mi Calm Calm - N/A   Overcast
10:53 PM -8.0 °F -16.9 °F -13.0 °F 79% 30.22 in 10.0 mi SSW 3.5 mph - N/A   Overcast
11:16 PM -8.0 °F - -14.1 °F 75% 30.04 in 10.0 mi Calm Calm - N/A   Scattered Clouds
11:53 PM -9.0 °F - -14.1 °F 79% 30.19 in 10.0 mi Calm Calm - N/A   Clear